Overview Statistics Trail Chart Weather Telemetry Raw packets
 

This is the latest recevied weather packets stored in our database for station/object W6MAF. If no packets are shown the sender has not sent any weather packets the latest 10 day(s).

<< 24 25 26 27 28 29 30 >>
Time Temp. Humidity Pressure Rain* Wind** Luminosity Snow
1788504760 15° C 40% - 0 mm 4.92 m/s, 176° - -
1788504462 15° C 39% - 0 mm 6.26 m/s, 188° - -
1788504164 15.56° C 40% - 0 mm 5.81 m/s, 200° - -
1788503867 15.56° C 39% - 0 mm 5.36 m/s, 207° - -
1788503569 15.56° C 39% - 0 mm 4.47 m/s, 205° - -
1788503268 15.56° C 38% - 0 mm 3.13 m/s, 198° - -
1788502970 15.56° C 38% - 0 mm 4.92 m/s, 219° - -
1788502673 16.11° C 38% - 0 mm 4.92 m/s, 208° - -
1788502375 16.11° C 37% - 0 mm 4.92 m/s, 218° - -
1788502077 16.11° C 37% - 0 mm 6.71 m/s, 214° - -
1788501780 16.11° C 38% - 0 mm 5.81 m/s, 215° - -
1788501479 16.11° C 38% - 0 mm 5.36 m/s, 205° - -
1788501181 16.11° C 38% - 0 mm 6.26 m/s, 198° - -
1788500883 16.11° C 37% - 0 mm 5.81 m/s, 219° - -
1788500585 16.11° C 37% - 0 mm 5.36 m/s, 170° - -
1788500288 16.11° C 36% - 0 mm 6.71 m/s, 183° - -
1788499999 16.11° C 36% - 0 mm 6.71 m/s, 205° - -
1788499689 16.11° C 36% - 0 mm 6.26 m/s, 180° - -
1788499391 16.11° C 36% - 0 mm 7.15 m/s, 212° - -
1788499094 16.11° C 37% - 0 mm 5.36 m/s, 187° - -
1788498796 16.67° C 37% - 0 mm 5.36 m/s, 197° - -
1788498498 16.67° C 36% - 0 mm 4.92 m/s, 183° - -
1788498200 16.67° C 36% - 0 mm 4.92 m/s, 186° - -
1788497899 16.67° C 36% - 0 mm 6.26 m/s, 201° - -
1788497602 16.67° C 36% - 0 mm 5.36 m/s, 214° - -

* Rain latest hour (hover to see other rain measurements)
** Current wind speed in m/s (hover to see current wind gust speed)